Location: Harbor View
(36.2448°N, 86.5797°W)
Time: 09:16:41
(UTC+00:00)

Aureole 3 Rocket - Pass Details

Date: 29 October 2020
Orbit: 399 x 1739 km, 82.5° (Epoch: 04 December)

Event Time Altitude Azimuth Distance (km) Brightness Sun altitude
Rises 23:22:45 0° 178° (S) 2,519 6.3 -6.7°
Reaches altitude 10° 23:24:36 10° 175° (S) 1,745 5.5 -7.1°
Maximum altitude 23:28:19 65° 93° (E) 690 3.1 -7.8°
Drops below altitude 10° 23:33:25 10° 12° (NNE) 2,385 5.8 -8.8°
Sets 23:36:17 0° 10° (N) 3,551 6.7 -9.4°
